Location: Maiden
(35.5760°N, 81.2120°W)
Time: 16:33:20
(UTC-05:00)

ISS - Visible Passes

Search period start: 20 December 2014 00:00
Search period end: 30 December 2014 00:00
Orbit: 404 x 414 km, 51.6° (Epoch: 20 December)

Date Brightness Start Highest point End Pass type
(mag) Time Alt. Az. Time Alt. Az. Time Alt. Az.
22 Dec -0.8 18:41:49 10° N 18:42:15 12° N 18:42:15 12° N visible
23 Dec -0.3 19:26:30 10° NW 19:26:37 11° NW 19:26:37 11° NW visible
24 Dec -2.2 18:35:50 10° NNW 18:38:23 27° NNE 18:38:23 27° NNE visible
25 Dec -1.6 17:45:18 10° NNW 17:47:37 18° NNE 17:49:54 10° ENE visible
25 Dec -1.5 19:21:11 10° WNW 19:23:11 31° WNW 19:23:11 31° WNW visible
26 Dec -3.5 18:30:07 10° NW 18:33:24 76° NE 18:35:33 20° SE visible
27 Dec -0.4 19:16:28 10° W 19:18:38 17° SW 19:20:48 10° S visible
28 Dec -1.5 18:24:42 10° WNW 18:27:42 33° SW 18:30:40 10° SSE visible
